[[{"header":{"parameterUnit":"m.s-1","parameterCategory":1,"la1":30.2991,"la2":30.254,"lo1":-89.0895,"lo2":-89.0444,"dy":0.0017,"dx":0.0017,"nx":28,"ny":28,"refTime":"2023-08-20T03:00:00:Z","depth":0,"parameterNumber":2,"parameterNumberName":"U-component_of_WINDS"},"data":[0,0,0,0,0,0,0,0,0,0,0,0,0,0,0,0,0,0,0,0,0,0,0,0,0,0,0,0,0,0,0,0,0,0,0,0,0,0,0,0,0,0,0,0,0,0,0,0,0,0,0,0,0,0,0,0,0,0,-5.8504,-5.8504,0,-5.8494,-5.8494,-5.8493,-5.8399,-5.8396,-5.8394,-5.8392,-5.8382,-5.8384,-5.8386,0,0,0,0,0,0,0,0,0,0,0,0,0,-5.8446,-5.8448,-5.8504,-5.8504,-5.8504,-5.8494,-5.8494,-5.8493,-5.8399,-5.8396,-5.8393,-5.8391,-5.8382,-5.8384,-5.8386,0,0,0,0,0,0,0,0,0,0,0,0,0,-5.8457,-5.8448,-5.8504,-5.8456,-5.8451,-5.8494,-5.8494,-5.8493,-5.84,-5.8396,-5.8393,-5.8389,-5.8381,-5.8384,-5.8387,-5.8475,0,0,-5.8395,-5.8397,0,0,0,0,0,0,0,0,-5.8457,-5.846,-5.8463,-5.8459,-5.8454,-5.8444,-5.847,-5.8487,-5.8401,-5.8419,-5.8392,-5.8387,-5.8406,-5.8406,-5.8412,-5.8475,-5.8474,-5.8396,-5.8397,-5.8399,-5.84,0,0,0,0,0,0,0,-5.8456,-5.846,-5.85,-5.8463,-5.8458,-5.8436,-5.8433,-5.8473,-5.8432,-5.8417,-5.841,-5.841,-5.8403,-5.841,-5.8411,-5.8474,-5.8396,-5.8398,-5.84,-5.8401,-5.8611,-5.8615,0,0,0,0,0,0,-5.8462,-5.846,-5.85,-5.85,-5.8447,-5.844,-5.8437,-5.8451,-5.8432,-5.8425,-5.8413,-5.8406,-5.8406,-5.8408,-5.8411,-5.8513,-5.8399,-5.8401,-5.8403,-5.8607,-5.8612,-5.8616,0,0,0,0,0,0,-5.8461,-5.8466,-5.8501,-5.8478,-5.848,-5.8444,-5.8461,-5.8452,-5.8459,-5.8429,-5.8421,-5.8428,-5.8404,-5.8406,-5.846,-5.8511,-5.8403,-5.8405,-5.8603,-5.8609,-5.8614,-5.8719,0,0,0,0,0,0,-5.846,-5.8467,-5.8499,-5.8479,-5.8482,-5.855,-5.8464,-5.8455,-5.8464,-5.8454,-5.844,-5.8434,-5.8401,-5.8456,-5.8463,-5.8513,-5.8408,-5.8598,-5.8606,-5.8612,-5.8711,-5.8728,-5.8742,0,0,0,0,0,-5.8458,-5.8529,-5.8501,-5.8506,-5.8521,-5.8553,-5.8554,-5.8514,-5.8469,-5.8501,-5.8483,-5.8435,-5.8506,-5.8463,-5.8469,-5.8521,-5.8595,-5.8603,-5.8612,-5.8704,-5.8724,-5.8742,0,0,0,0,0,0,-5.8555,-5.8525,-5.8494,-5.856,-5.856,-5.8537,-5.8576,-5.8537,-5.855,-5.854,-5.8491,-5.8488,-5.855,-5.8541,-5.8494,-5.8607,-5.8542,-5.8552,-5.861,-5.8629,-5.8644,-5.8644,-5.841,0,0,0,0,0,-5.8584,-5.8611,-5.8584,-5.8646,-5.8647,-5.8613,-5.8624,-5.8594,-5.8592,-5.8591,-5.8576,-5.8576,-5.8598,-5.8614,-5.8632,-5.8711,-5.8706,-5.875,-5.8766,-5.8779,-5.8788,-5.8829,-5.8848,-5.8645,-5.8644,-5.8644,0,0,-5.8644,-5.8631,-5.8651,-5.8665,-5.8661,-5.8691,-5.8612,-5.8647,-5.8669,-5.8596,-5.8645,-5.8635,-5.8632,-5.8699,-5.8728,-5.8694,-5.8844,-5.879,-5.8801,-5.8802,-5.884,-5.8859,-5.8876,-5.865,-5.8649,-5.8648,0,0,-5.8768,-5.8762,-5.8812,-5.8811,-5.8806,-5.8783,-5.8796,-5.878,-5.877,-5.8819,-5.8765,-5.8792,-5.8831,-5.8831,-5.8837,-5.8967,-5.8923,-5.8975,-5.9055,-5.9096,-5.9112,-5.9126,-5.9171,-5.9188,-5.8984,-5.8984,-5.8984,0,-5.8843,-5.8885,-5.8843,-5.8882,-5.889,-5.8827,-5.8878,-5.8879,-5.8881,-5.8889,-5.8852,-5.8901,-5.8895,-5.896,-5.8992,-5.9,-5.9013,-5.8974,-5.9113,-5.9127,-5.9139,-5.9182,-5.9199,-5.899,-5.899,-5.8989,-5.8988,0,-5.8978,-5.9009,-5.9051,-5.9054,-5.9067,-5.9113,-5.9078,-5.9097,-5.9067,-5.9049,-5.9101,-5.9092,-5.9108,-5.9123,-5.9093,-5.9186,-5.9165,-5.9122,-5.9054,-5.9165,-5.9205,-5.9221,-5.8999,-5.8997,-5.8995,-5.8994,0,0,-5.9158,-5.9141,-5.9157,-5.9158,-5.9151,-5.9174,-5.9218,-5.9234,-5.9251,-5.9257,-5.9292,-5.9329,-5.9289,-5.9296,-5.9267,-5.9303,-5.9406,-5.9255,-5.9255,-5.9282,-5.9507,-5.9538,-5.9558,-5.9379,-5.9382,-5.9385,-5.9507,0,-5.9277,-5.9348,-5.9313,-5.939,-5.9418,-5.9361,-5.9399,-5.94,-5.9385,-5.9408,-5.9392,-5.9419,-5.9365,-5.9369,-5.9403,-5.9387,-5.945,-5.9378,-5.9411,-5.9413,-5.9411,-5.9578,-5.961,-5.9726,-5.9522,-5.9525,-5.9527,0,-5.9423,-5.9435,-5.9514,-5.9503,-5.9514,-5.9548,-5.9561,-5.9584,-5.9585,-5.9572,-5.9581,-5.9545,-5.9588,-5.9525,-5.9584,-5.9536,-5.9548,-5.9543,-5.9547,-5.9546,-5.9474,-5.958,-5.9762,-5.9778,-5.9551,-5.9549,-5.9547,0,-5.9545,-5.9581,-5.9633,-5.9637,-5.9626,-5.9651,-5.9648,-5.9645,-5.9658,-5.9671,-5.9679,-5.9697,-5.9706,-5.9721,-5.9692,-5.9648,-5.9756,-5.9689,-5.9746,-5.9747,-5.9768,-5.9766,-5.9952,-5.9781,-5.9781,-5.978,-5.978,0,-5.9679,-5.9729,-5.9688,-5.972,-5.9775,-5.9737,-5.9793,-5.9784,-5.9783,-5.9813,-5.9766,-5.9795,-5.9755,-5.9781,-5.9759,-5.9812,-5.9817,-5.9808,-5.9801,-5.981,-5.9811,-5.9816,-5.9806,-5.9785,-5.9784,-5.9783,-5.9782,0,-5.9822,-5.9797,-5.985,-5.9836,-5.9834,-5.9876,-5.9864,-5.9894,-5.9878,-5.9917,-5.9924,-5.9899,-5.9927,-5.99,-5.9927,-5.9912,-5.9983,-5.9965,-5.9982,-5.9976,-6.0034,-6.0028,-6.0227,-6.025,-6.0066,-6.0068,-6.0069,0,-5.9908,-5.9946,-5.9937,-5.9954,-5.9953,-5.9981,-5.9994,-5.996,-5.9975,-5.9981,-6.001,-6.0035,-6.0052,-6.0102,-6.0086,-6.0107,-6.0089,-6.0157,-6.0091,-6.01,-6.0088,-6.0085,-6.0089,-6.0169,-6.0171,-6.0173,-6.0175,0,-6.0063,-6.0049,-6.007,-6.0087,-6.0104,-6.0116,-6.0125,-6.0141,-6.0106,-6.0127,-6.0155,-6.0169,-6.0198,-6.0223,-6.024,-6.0238,-6.0201,-6.0196,-6.021,-6.0219,-6.0227,-6.0222,-6.0016,-6.0191,-6.0189,-6.0188,-6.0187,-6.0186,-6.0179,-6.021,-6.0209,-6.0234,-6.0238,-6.0247,-6.0275,-6.0263,-6.0286,-6.0306,-6.0285,-6.0321,-6.0323,-6.0342,-6.0345,-6.0373,-6.0344,-6.0365,-6.0369,-6.0374,-6.0382,-6.0225,-6.0376,-6.0376,-6.0375,-6.0375,-6.0374,0,-6.033,-6.0327,-6.0351,-6.0365,-6.0386,-6.035,-6.0359,-6.0378,-6.041,-6.0415,-6.0434,-6.0468,-6.0494,-6.0482,-6.0505,-6.0529,-6.0513,-6.0536,-6.0533,-6.0533,-6.0407,-6.0392,-6.0549,-6.0549,-6.0549,-6.0549,-6.0549,-6.0549,-6.0411,-6.0462,-6.0449,-6.0502,-6.0499,-6.0533,-6.0541,-6.055,-6.0554,-6.0595,-6.0616,-6.0608,-6.0607,-6.063,-6.0652,-6.0648,-6.0658,-6.0687,-6.0677,-6.0559,-6.0542,-6.0525,-6.0511,-6.069,-6.069,-6.08,-6.0801,-6.0802]},{"header":{"parameterUnit":"m.s-1","parameterCategory":1,"la1":30.2991,"la2":30.254,"lo1":-89.0895,"lo2":-89.0444,"dy":0.0017,"dx":0.0017,"nx":28,"ny":28,"refTime":"2023-08-20T03:00:00:Z","depth":0,"parameterNumber":3,"parameterNumberName":"V-component_of_WINDS"},"data":[0,0,0,0,0,0,0,0,0,0,0,0,0,0,0,0,0,0,0,0,0,0,0,0,0,0,0,0,0,0,0,0,0,0,0,0,0,0,0,0,0,0,0,0,0,0,0,0,0,0,0,0,0,0,0,0,0,0,3.9945,3.9946,0,4.0045,4.0046,4.0047,4.0135,4.0136,4.0137,4.0138,4.0233,4.0235,4.0236,0,0,0,0,0,0,0,0,0,0,0,0,0,3.9827,3.9829,3.9945,3.9947,3.9948,4.0045,4.0046,4.0047,4.0135,4.0136,4.0137,4.0138,4.0233,4.0235,4.0237,0,0,0,0,0,0,0,0,0,0,0,0,0,3.9898,3.983,3.9945,4.0003,4.0009,4.0044,4.0046,4.0048,4.0134,4.0136,4.0137,4.0139,4.0232,4.0234,4.0237,4.022,0,0,4.0244,4.0245,0,0,0,0,0,0,0,0,3.9893,3.9902,3.9993,3.9999,4.0006,4.0079,4.004,4.0105,4.0134,4.0087,4.0138,4.014,4.018,4.0187,4.0202,4.0225,4.0229,4.0244,4.0246,4.0247,4.0247,0,0,0,0,0,0,0,3.9888,3.9898,3.9985,3.9995,4.0003,4.0023,4.0035,4.0052,4.0123,4.0091,4.0098,4.0108,4.0184,4.02,4.0205,4.023,4.0244,4.0246,4.0248,4.0249,4.0247,4.0245,0,0,0,0,0,0,3.9875,3.9893,3.9981,3.9988,3.9953,4.0024,4.0037,4.0054,4.0123,4.0136,4.0107,4.0112,4.0195,4.0202,4.0209,4.0195,4.0247,4.0249,4.025,4.0248,4.0246,4.0245,0,0,0,0,0,0,3.9873,3.9882,3.9977,3.9942,3.9956,4.0024,4.0043,4.0055,4.0071,4.0136,4.0148,4.011,4.0196,4.0205,4.0218,4.02,4.025,4.0252,4.025,4.0248,4.0246,4.0167,0,0,0,0,0,0,3.9869,3.9881,3.9876,3.9942,3.9958,3.9985,4.0042,4.0056,4.0075,4.0083,4.0142,4.0153,4.0198,4.0214,4.022,4.0204,4.0254,4.0252,4.0249,4.0246,4.0172,4.0162,4.0155,0,0,0,0,0,3.9864,3.9848,3.9875,3.9885,3.9953,3.9984,3.9993,4.0047,4.0074,4.0069,4.0111,4.0151,4.0201,4.0214,4.0222,4.0206,4.0253,4.025,4.0247,4.0175,4.0164,4.0155,0,0,0,0,0,0,3.9775,3.9857,3.9889,3.9893,3.9932,3.9999,3.9995,4.0034,4.0063,4.0069,4.0133,4.0146,4.0151,4.018,4.0193,4.0195,4.0233,4.0231,4.0176,4.0166,4.0157,4.015,4.0256,0,0,0,0,0,3.9757,3.9777,3.9847,3.9844,3.9862,3.9925,3.9941,3.998,4.0021,4.0036,4.0079,4.0116,4.0141,4.0155,4.0181,4.0177,4.0191,4.017,4.0162,4.0154,4.0151,4.0153,4.0145,4.0234,4.0234,4.0234,0,0,3.9717,3.9765,3.9773,3.9828,3.9862,3.988,3.9938,3.9954,3.9968,4.0038,4.0054,4.0086,4.0132,4.0137,4.0141,4.0161,4.0131,4.015,4.0144,4.0145,4.0149,4.014,4.0133,4.0232,4.0232,4.0232,0,0,3.9656,3.9693,3.9697,3.9731,3.9783,3.9825,3.9826,3.9889,3.9914,3.9931,3.9985,4.0002,4.0042,4.0073,4.0093,4.0047,4.0085,4.0053,4.0009,4.0009,4.0002,3.9996,3.998,3.9973,4.0051,4.005,4.005,0,3.9599,3.9631,3.9692,3.9707,3.973,3.9797,3.9801,3.983,3.9886,3.99,3.9923,3.9977,4.0012,4.0025,4.0015,4.0029,4.0032,4.0046,3.9999,3.9993,3.9989,3.9974,3.9968,4.0046,4.0047,4.0047,4.0048,0,3.956,3.9581,3.9577,3.9634,3.9656,3.9664,3.9726,3.9741,3.9779,3.9819,3.9836,3.9881,3.9918,3.9925,3.996,3.9943,3.9955,3.9987,4.0026,3.9975,3.9962,3.9957,4.004,4.0042,4.0043,4.0044,0,0,3.9442,3.9536,3.9533,3.956,3.9624,3.9641,3.9653,3.9692,3.9704,3.9741,3.9753,3.9787,3.9818,3.9842,3.9882,3.9883,3.9844,3.9915,3.9918,3.99,3.9829,3.9804,3.9797,3.987,3.987,3.9869,3.9826,0,3.9391,3.9418,3.9475,3.9484,3.9505,3.9571,3.9581,3.9621,3.9659,3.9681,3.9723,3.9746,3.9786,3.9801,3.9805,3.9848,3.983,3.9852,3.988,3.9881,3.9866,3.979,3.9763,3.972,3.9821,3.982,3.9819,0,3.9334,3.9371,3.9382,3.9448,3.9458,3.9467,3.9508,3.9529,3.9576,3.9604,3.9632,3.9677,3.9692,3.9729,3.9752,3.9765,3.978,3.9803,3.9803,3.9807,3.9846,3.9791,3.9707,3.97,3.9812,3.9813,3.9813,0,3.9247,3.93,3.9314,3.9335,3.9411,3.9416,3.9448,3.9497,3.9517,3.9553,3.9567,3.9603,3.9622,3.9649,3.9702,3.9724,3.9719,3.976,3.9742,3.974,3.9736,3.9736,3.9653,3.9747,3.9747,3.9747,3.9747,0,3.9184,3.9188,3.9277,3.9285,3.9293,3.9358,3.9363,3.9401,3.9444,3.946,3.9519,3.9533,3.9603,3.9625,3.9667,3.968,3.9688,3.971,3.9721,3.9705,3.9702,3.9715,3.9719,3.9745,3.9746,3.9746,3.9746,0,3.9088,3.9147,3.9167,3.9239,3.9257,3.926,3.9321,3.9331,3.9374,3.9394,3.9403,3.9469,3.9498,3.9555,3.9599,3.9627,3.963,3.965,3.9615,3.9622,3.9601,3.9602,3.9523,3.9516,3.9614,3.9613,3.9612,0,3.9043,3.9048,3.9122,3.9139,3.9169,3.9194,3.9217,3.9282,3.9302,3.9358,3.9361,3.9396,3.9427,3.947,3.9521,3.9556,3.9576,3.9547,3.9581,3.9566,3.9576,3.9575,3.9576,3.9538,3.9536,3.9535,3.9534,0,3.8957,3.8987,3.9018,3.906,3.9086,3.9121,3.9159,3.9169,3.9243,3.9263,3.9295,3.9319,3.9366,3.9399,3.9442,3.9473,3.9516,3.9524,3.9521,3.9504,3.9484,3.9495,3.9593,3.9524,3.9525,3.9526,3.9527,3.9527,3.8886,3.8895,3.8949,3.8982,3.9018,3.9053,3.9067,3.9114,3.9142,3.9187,3.9223,3.9252,3.9301,3.9363,3.9392,3.9415,3.9435,3.9431,3.9431,3.9429,3.9422,3.9481,3.9423,3.9423,3.9423,3.9424,3.9424,0,3.8804,3.8843,3.8872,3.8926,3.8952,3.8993,3.9038,3.9056,3.9082,3.9125,3.9155,3.9192,3.9226,3.9281,3.9318,3.9326,3.9347,3.9334,3.9333,3.934,3.9401,3.94,3.9317,3.9317,3.9317,3.9317,3.9317,3.9317,3.8764,3.8782,3.8818,3.8855,3.8893,3.8924,3.8947,3.8979,3.9014,3.9054,3.9083,3.9119,3.9167,3.9209,3.9242,3.9257,3.9268,3.9249,3.927,3.9326,3.9336,3.9345,3.9344,3.925,3.925,3.9207,3.9206,3.9206]}]]